20050423,000016,723449,33.660773,-119.830070,13.495,33.175,1.672,4.389
20050423,000046,723479,33.661681,-119.831536,13.521,33.175,1.713,4.531
20050423,000116,723509,33.662581,-119.833010,13.539,33.193,1.786,4.801
20050423,000146,723539,33.663480,-119.834478,13.547,33.218,1.793,4.814
20050423,000216,723569,33.664388,-119.835950,13.551,33.249,1.753,4.651
20050423,000246,723600,33.665286,-119.837430,13.551,33.277,1.786,4.773
20050423,000316,723629,33.666191,-119.838910,13.541,33.305,1.793,4.804
20050423,000346,723659,33.667091,-119.840393,13.506,33.353,1.746,4.634
20050423,000416,723689,33.667990,-119.841883,13.476,33.392,1.726,4.516
20050423,000446,723719,33.668893,-119.843373,13.401,33.455,1.833,4.855
20050423,000516,723749,33.669801,-119.844871,13.317,33.525,1.874,3.763
20050423,000546,723779,33.670710,-119.846361,13.294,33.533,1.874,3.653
20050423,000616,723809,33.671620,-119.847855,13.273,33.533,1.726,3.206
20050423,000646,723839,33.672538,-119.849345,13.234,33.544,1.706,3.133
20050423,000716,723869,33.673461,-119.850848,13.195,33.547,1.699,3.106
20050423,000746,723899,33.674385,-119.852350,13.145,33.560,1.820,3.409
20050423,000816,723929,33.675300,-119.853856,13.157,33.518,2.171,4.364
20050423,000846,723959,33.676228,-119.855361,13.194,33.466,2.382,4.977
20050423,000916,723989,33.677153,-119.856868,13.229,33.408,2.471,5.248
20050423,000946,724019,33.678080,-119.858365,13.236,33.383,2.614,5.703
20050423,001017,724050,33.679005,-119.859868,13.279,33.338,2.703,6.007
20050423,001046,724079,33.679925,-119.861381,13.311,33.299,2.813,6.391
20050423,001116,724109,33.680845,-119.862895,13.349,33.268,2.923,6.787
20050423,001146,724139,33.681766,-119.864406,13.366,33.264,3.095,7.429
20050423,001216,724169,33.682686,-119.865906,13.368,33.266,3.268,8.117
20050423,001246,724199,33.683611,-119.867411,13.360,33.286,3.573,9.383
20050423,001316,724229,33.684548,-119.868925,13.360,33.299,3.872,10.805
20050423,001346,724259,33.685465,-119.870441,13.342,33.326,4.194,13.506
20050423,001416,724289,33.686380,-119.871941,13.319,33.353,4.390,15.521
20050423,001446,724319,33.687291,-119.873431,13.317,33.356,4.664,20.239
20050423,001516,724349,33.688191,-119.874928,13.312,33.357,4.699,20.554
20050423,001546,724379,33.689096,-119.876416,13.324,33.331,4.749,19.048
20050423,001616,724409,33.689975,-119.877915,13.328,33.323,4.587,16.427
20050423,001646,724439,33.690876,-119.879380,13.353,33.346,4.418,15.175
20050423,001716,724469,33.691773,-119.880843,13.382,33.319,4.138,12.456
20050423,001746,724499,33.692665,-119.882290,13.414,33.293,3.900,10.889
20050423,001817,724530,33.693555,-119.883733,13.476,33.247,3.524,9.333
20050423,001846,724559,33.694466,-119.885146,13.515,33.223,3.330,8.557
20050423,001916,724589,33.695346,-119.886588,13.559,33.202,3.337,8.983
20050423,001946,724619,33.696221,-119.888026,13.577,33.211,3.344,10.154
20050423,002016,724649,33.697096,-119.889471,13.597,33.221,3.462,9.923
20050423,002046,724679,33.697975,-119.890920,13.617,33.232,3.629,10.882
20050423,002116,724709,33.698856,-119.892371,13.643,33.236,3.698,12.693
20050423,002146,724739,33.699740,-119.893825,13.702,33.210,3.601,12.928
20050423,002216,724769,33.700621,-119.895271,13.749,33.194,3.587,13.174
20050423,002246,724799,33.701496,-119.896711,13.763,33.207,3.629,13.399
20050423,002316,724829,33.702383,-119.898153,13.741,33.253,3.684,13.729
20050423,002346,724859,33.703273,-119.899613,13.664,33.347,3.462,12.464
20050423,002416,724889,33.704170,-119.901075,13.609,33.414,3.330,11.710
20050423,002447,724920,33.705068,-119.902535,13.504,33.512,3.123,10.612
20050423,002516,724950,33.705973,-119.903995,13.464,33.539,3.130,10.646
20050423,002546,724979,33.706883,-119.905446,13.446,33.540,3.095,10.488
20050423,002616,725009,33.707786,-119.906895,13.460,33.509,3.019,10.052
20050423,002646,725039,33.708703,-119.908335,13.456,33.486,2.950,9.197
20050423,002716,725069,33.709606,-119.909775,13.452,33.471,2.985,9.328
20050423,002746,725099,33.710513,-119.911201,13.454,33.450,2.950,8.032
20050423,002816,725129,33.711418,-119.912625,13.464,33.425,2.868,7.348
20050423,002846,725159,33.712321,-119.914036,13.486,33.393,2.992,8.269
20050423,002916,725189,33.713223,-119.915455,13.500,33.373,2.888,8.576
20050423,002947,725220,33.714158,-119.916818,13.537,33.337,2.936,9.630
20050423,003016,725249,33.715065,-119.918163,13.562,33.314,3.047,10.096
20050423,003046,725279,33.715963,-119.919505,13.587,33.296,3.095,10.286
20050423,003116,725309,33.716865,-119.920835,13.617,33.278,3.081,10.139
20050423,003146,725339,33.717766,-119.922161,13.656,33.256,2.854,9.001
20050423,003216,725369,33.718670,-119.923490,13.668,33.262,2.511,7.437
20050423,003247,725400,33.719605,-119.924853,13.633,33.310,2.375,6.823
20050423,003317,725430,33.720478,-119.926140,13.588,33.364,2.205,6.106
20050423,003346,725459,33.721363,-119.927456,13.423,33.515,2.219,6.132
20050423,003416,725489,33.722256,-119.928771,13.356,33.569,2.253,6.252
20050423,003446,725519,33.723143,-119.930093,13.221,33.663,2.382,6.761
20050423,003516,725549,33.724048,-119.931405,13.168,33.675,2.539,7.400
20050423,003546,725579,33.724948,-119.932730,13.082,33.709,2.525,7.330
20050423,003616,725609,33.725870,-119.934033,13.034,33.700,2.580,7.547
20050423,003646,725639,33.726768,-119.935338,13.034,33.648,2.676,7.939
20050423,003716,725669,33.727670,-119.936670,12.951,33.675,2.724,8.144
20050423,003746,725699,33.728561,-119.937998,12.925,33.646,2.751,8.258
20050423,003816,725729,33.729455,-119.939343,12.869,33.649,2.778,8.371
20050423,003846,725759,33.730348,-119.940695,12.837,33.640,2.717,8.088
20050423,003916,725789,33.731231,-119.942050,12.854,33.587,2.587,7.519
20050423,003946,725819,33.732118,-119.943406,12.869,33.539,2.607,7.596
20050423,004016,725849,33.733013,-119.944763,12.885,33.493,2.683,7.913
20050423,004046,725879,33.733963,-119.946065,12.898,33.451,2.765,8.271
20050423,004116,725909,33.734928,-119.947351,12.907,33.424,2.717,8.053
20050423,004146,725939,33.735891,-119.948643,12.925,33.395,2.648,7.745
20050423,004217,725970,33.736851,-119.949950,12.951,33.362,2.607,7.558
20050423,004246,725999,33.737825,-119.951250,12.987,33.328,2.491,7.074
20050423,004317,726030,33.738831,-119.952588,13.022,33.294,2.443,6.869
20050423,004346,726059,33.739768,-119.953841,13.088,33.243,2.429,6.812
20050423,004416,726089,33.740746,-119.955156,13.102,33.241,2.429,6.808
20050423,004446,726119,33.741736,-119.956468,13.156,33.215,2.300,6.288
20050423,004517,726150,33.742716,-119.957776,13.178,33.217,2.192,5.861
20050423,004546,726179,33.743698,-119.959088,13.233,33.191,2.239,6.037
20050423,004616,726209,33.744678,-119.960391,13.262,33.188,2.327,6.386
20050423,004646,726239,33.745660,-119.961688,13.271,33.209,2.307,6.292
20050423,004716,726269,33.746631,-119.962996,13.260,33.247,2.382,6.585
20050423,004746,726300,33.747636,-119.964315,13.254,33.277,2.287,6.211
20050423,004816,726329,33.748618,-119.965618,13.232,33.316,2.320,6.338
20050423,004846,726359,33.749590,-119.966941,13.184,33.369,2.395,6.630
20050423,004916,726389,33.750578,-119.968260,13.108,33.441,2.505,7.064
20050423,004947,726420,33.751575,-119.969583,13.020,33.516,2.642,7.625
20050423,005016,726449,33.752590,-119.970895,12.997,33.528,2.676,7.761
20050423,005046,726479,33.753600,-119.972201,12.957,33.541,2.621,7.520
20050423,005116,726509,33.754610,-119.973520,12.942,33.524,2.600,7.425
20050423,005146,726539,33.755620,-119.974836,12.959,33.480,2.600,7.422
20050423,005216,726569,33.756645,-119.976155,13.008,33.413,2.471,6.887
20050423,005246,726599,33.757653,-119.977488,13.077,33.335,2.395,6.579
20050423,005316,726629,33.758671,-119.978813,13.106,33.294,2.443,6.765
20050423,005346,726659,33.759683,-119.980133,13.183,33.225,2.362,6.442
20050423,005416,726689,33.760693,-119.981465,13.219,33.205,2.341,6.354
20050423,005446,726719,33.761701,-119.982791,13.250,33.197,2.416,6.648
20050423,005516,726749,33.762721,-119.984118,13.271,33.201,2.395,6.557
20050423,005547,726780,33.763735,-119.985440,13.271,33.226,2.402,6.581
20050423,005616,726809,33.764756,-119.986768,13.285,33.237,2.334,6.314
20050423,005646,726839,33.765768,-119.988093,13.282,33.258,2.389,6.523
20050423,005716,726869,33.766786,-119.989418,13.257,33.295,2.334,6.303
20050423,005746,726899,33.767791,-119.990746,13.220,33.340,2.389,6.509
20050423,005817,726930,33.768803,-119.992081,13.194,33.371,2.382,6.476
20050423,005846,726959,33.769820,-119.993405,13.099,33.453,2.287,6.104
20050423,005916,726989,33.770848,-119.994738,13.077,33.464,2.307,6.181
20050423,005946,727019,33.771876,-119.996071,13.038,33.480,2.287,6.097
20050423,010016,727049,33.772871,-119.997360,13.040,33.456,2.307,6.174
20050423,010047,727080,33.773913,-119.998688,13.024,33.448,2.266,6.004
20050423,010116,727109,33.774956,-120.000018,13.013,33.436,2.368,6.395
20050423,010146,727139,33.776005,-120.001337,13.022,33.410,2.219,5.812
20050423,010216,727169,33.777055,-120.002662,13.033,33.384,2.171,5.638
20050423,010246,727199,33.778081,-120.003993,13.061,33.345,2.253,5.931
20050423,010316,727229,33.779128,-120.005323,13.105,33.296,2.124,5.449
20050423,010346,727259,33.780175,-120.006637,13.165,33.239,2.131,5.468
20050423,010416,727289,33.781225,-120.007963,13.233,33.182,2.212,5.756
20050423,010446,727319,33.782263,-120.009293,13.367,33.077,2.232,5.824
20050423,010516,727349,33.783286,-120.010632,13.449,33.031,2.273,5.971
20050423,010546,727379,33.784306,-120.011975,13.574,32.968,2.382,6.374
20050423,010616,727409,33.785321,-120.013310,13.632,32.974,2.300,6.056
20050423,010646,727439,33.786336,-120.014645,13.728,32.956,2.355,6.254
20050423,010716,727469,33.787338,-120.015995,13.780,32.974,2.314,6.087
20050423,010746,727499,33.788350,-120.017340,13.814,33.004,2.429,6.532
20050423,010817,727530,33.789385,-120.018733,13.844,33.037,2.443,6.576
20050423,010847,727560,33.790353,-120.020058,13.847,33.089,2.389,6.357
20050423,010916,727589,33.791341,-120.021408,13.840,33.140,2.450,6.584
20050423,010947,727620,33.792325,-120.022795,13.840,33.177,2.539,6.927
20050423,011016,727650,33.793328,-120.024165,13.850,33.199,2.518,6.836
20050423,011047,727680,33.794373,-120.025565,13.882,33.193,2.491,6.728
20050423,011116,727709,33.795336,-120.026870,13.884,33.209,2.573,7.043
20050423,011146,727739,33.796336,-120.028218,13.894,33.217,2.477,6.657
20050423,011217,727770,33.797356,-120.029607,13.895,33.231,2.348,6.151
20050423,011246,727799,33.798306,-120.030905,13.884,33.253,2.375,6.242
20050423,011316,727829,33.799295,-120.032240,13.854,33.289,2.409,6.365
20050423,011347,727860,33.800321,-120.033635,13.813,33.331,2.382,6.252
20050423,011416,727889,33.801278,-120.034945,13.650,33.469,2.327,6.036
20050423,011446,727919,33.802278,-120.036282,13.600,33.501,2.355,6.129
20050423,011517,727950,33.803260,-120.037650,13.544,33.527,2.457,6.516
20050423,011547,727980,33.804260,-120.039077,13.520,33.517,2.593,7.035
20050423,011616,728009,33.805215,-120.040378,13.444,33.544,2.539,6.817
20050423,011647,728040,33.806213,-120.041808,13.469,33.488,2.464,6.514
20050423,011717,728070,33.807176,-120.043112,13.467,33.454,2.477,6.557
20050423,011747,728100,33.808195,-120.044513,13.485,33.405,2.587,6.971
20050423,011817,728130,33.809183,-120.045885,13.478,33.384,2.792,7.785
20050423,011846,728159,33.810163,-120.047182,13.392,33.438,2.813,7.863
20050423,011917,728190,33.811186,-120.048608,13.392,33.423,2.696,7.377
20050423,011947,728220,33.812183,-120.050008,13.344,33.442,2.683,7.317
20050423,012017,728250,33.813168,-120.051332,13.283,33.474,2.751,7.579
20050423,012047,728280,33.814196,-120.052793,13.292,33.442,2.683,7.289
20050423,012117,728310,33.815211,-120.054178,13.306,33.406,2.545,6.750
20050423,012147,728340,33.816203,-120.055608,13.333,33.361,2.518,6.636
20050423,012217,728370,33.817193,-120.056957,13.408,33.278,2.539,6.706
20050423,012247,728400,33.818233,-120.058417,13.462,33.221,2.545,6.715
20050423,012316,728429,33.819196,-120.059788,13.515,33.176,2.505,6.558
20050423,012347,728460,33.820275,-120.061212,13.537,33.163,2.429,6.263
20050423,012416,728489,33.821251,-120.062578,13.560,33.161,2.580,6.823
20050423,012447,728520,33.822305,-120.064038,13.584,33.162,2.498,6.502
20050423,012517,728550,33.823321,-120.065437,13.585,33.185,2.484,6.439
20050423,012547,728580,33.824338,-120.066818,13.590,33.207,2.573,6.771
20050423,012617,728610,33.825341,-120.068218,13.584,33.230,2.545,6.650
20050423,012647,728640,33.826345,-120.069597,13.577,33.254,2.600,6.845
20050423,012717,728670,33.827353,-120.070962,13.583,33.258,2.676,7.124
20050423,012747,728700,33.828351,-120.072293,13.575,33.274,2.676,7.118
20050423,012817,728730,33.829345,-120.073615,13.565,33.290,2.593,6.790
20050423,012847,728760,33.830345,-120.074945,13.556,33.302,2.621,6.883
20050423,012917,728790,33.831346,-120.076265,13.506,33.347,2.587,6.744
20050423,012947,728820,33.832346,-120.077583,13.467,33.380,2.498,6.401
20050423,013017,728850,33.833346,-120.078908,13.279,33.532,2.457,6.235
20050423,013047,728880,33.834375,-120.080200,13.096,33.669,2.402,6.026
20050423,013117,728910,33.835420,-120.081468,12.948,33.749,2.389,5.968
20050423,013148,728941,33.836468,-120.082720,12.824,33.792,2.293,5.619
20050423,013217,728970,33.837503,-120.083983,12.732,33.791,2.362,5.860
20050423,013247,729000,33.838550,-120.085250,12.622,33.798,2.423,6.065
20050423,013317,729030,33.839595,-120.086520,12.543,33.785,2.375,5.882
20050423,013347,729060,33.840641,-120.087795,12.496,33.744,2.293,5.583
20050423,013417,729090,33.841691,-120.089077,12.497,33.669,2.266,5.475
20050423,013447,729120,33.842738,-120.090362,12.495,33.598,2.266,5.468
20050423,013517,729150,33.843791,-120.091640,12.496,33.535,2.327,5.671
20050423,013547,729180,33.844836,-120.092915,12.472,33.507,2.402,5.924
20050423,013617,729210,33.845888,-120.094198,12.438,33.500,2.402,5.915
20050423,013647,729240,33.846948,-120.095488,12.434,33.468,2.314,5.593
20050423,013717,729270,33.848015,-120.096790,12.377,33.485,2.334,5.653
20050423,013747,729300,33.849083,-120.098080,12.341,33.487,2.362,5.738
20050423,013817,729330,33.850161,-120.099365,12.280,33.511,2.389,5.824
20050423,013847,729360,33.851241,-120.100655,12.275,33.483,2.375,5.761
20050423,013917,729390,33.852326,-120.101942,12.272,33.457,2.287,5.446
20050423,013947,729420,33.853411,-120.103228,12.326,33.385,2.362,5.694
20050423,014017,729450,33.854498,-120.104510,12.350,33.339,2.375,5.730
20050423,014048,729481,33.855583,-120.105795,12.345,33.330,2.280,5.390
20050423,014117,729510,33.856676,-120.107075,12.348,33.319,2.232,5.218
20050423,014147,729540,33.857751,-120.108385,12.361,33.304,2.198,5.097
20050423,014217,729570,33.858845,-120.109692,12.365,33.303,2.314,5.472
20050423,014247,729600,33.859945,-120.111003,12.360,33.315,2.219,5.139
20050423,014317,729630,33.861025,-120.112330,12.373,33.306,2.225,5.152
20050423,014347,729660,33.862106,-120.113647,12.403,33.285,2.225,5.139
20050423,014418,729691,33.863181,-120.114968,12.437,33.265,2.178,4.971
20050423,014447,729720,33.864263,-120.116287,12.460,33.260,2.164,4.914
20050423,014517,729750,33.865350,-120.117607,12.457,33.282,2.192,4.991
20050423,014547,729780,33.866425,-120.118920,12.446,33.314,2.164,4.893
20050423,014617,729810,33.867513,-120.120230,12.359,33.402,2.124,4.750
20050423,014647,729840,33.868591,-120.121557,12.358,33.416,2.144,4.801
20050423,014717,729870,33.869673,-120.122870,12.288,33.478,2.137,4.770
20050423,014748,729901,33.870760,-120.124192,12.276,33.484,2.117,4.689
20050423,014817,729930,33.871850,-120.125513,12.280,33.470,2.117,4.675
20050423,014848,729961,33.872938,-120.126830,12.299,33.440,2.253,5.096
20050423,014917,729990,33.874016,-120.128165,12.242,33.480,2.287,5.192
20050423,014947,730020,33.875098,-120.129495,12.178,33.529,2.192,4.877
20050423,015017,730050,33.876193,-120.130823,12.178,33.519,2.273,5.121
20050423,015047,730080,33.876975,-120.131845,12.171,33.512,2.355,5.374
20050423,015117,730110,33.877338,-120.132578,12.163,33.498,2.505,5.858
20050423,015147,730140,33.877401,-120.133152,12.154,33.494,2.471,5.734
20050423,015217,730170,33.877431,-120.133653,12.150,33.485,2.518,5.882
20050423,015247,730200,33.877498,-120.134047,12.129,33.478,2.477,5.722
20050423,015317,730230,33.877566,-120.134348,12.129,33.465,2.436,5.570
20050423,015347,730260,33.877615,-120.134600,12.129,33.467,2.314,5.165
20050423,015418,730291,33.877660,-120.134867,12.117,33.479,2.409,5.460
20050423,015448,730321,33.877691,-120.135135,12.111,33.482,2.464,5.628
20050423,015517,730350,33.877726,-120.135380,12.107,33.478,2.539,5.861
20050423,015548,730381,33.877751,-120.135578,12.109,33.465,2.416,5.442
20050423,015617,730410,33.877766,-120.135758,12.166,33.404,2.192,4.720
20050423,015648,730441,33.877770,-120.135927,12.218,33.345,2.253,4.896
20050423,015717,730470,33.877770,-120.136075,12.321,33.248,2.137,4.529
20050423,015747,730500,33.877756,-120.136207,12.335,33.236,2.260,4.887
20050423,015817,730530,33.877748,-120.136342,12.338,33.244,2.355,5.171
20050423,015847,730560,33.877726,-120.136478,12.331,33.266,2.293,4.968
20050423,015917,730590,33.877696,-120.136635,12.325,33.280,2.293,4.955
20050423,015947,730620,33.877648,-120.136832,12.304,33.318,2.341,5.086
20050423,020017,730650,33.877616,-120.137017,12.270,33.359,2.416,5.299
20050423,020047,730680,33.877598,-120.137173,12.275,33.362,2.266,4.824
20050423,020118,730711,33.877585,-120.137303,12.265,33.371,2.334,5.018
20050423,020148,730741,33.877575,-120.137412,12.270,33.367,2.239,4.714
20050423,020217,730770,33.877561,-120.137497,12.263,33.372,2.314,4.924
20050423,020247,730800,33.877543,-120.137552,12.240,33.390,2.300,4.874
20050423,020318,730831,33.877540,-120.137608,12.242,33.387,2.341,4.975
20050423,020348,730861,33.877521,-120.137660,12.239,33.389,2.341,4.957
20050423,020417,730890,33.877476,-120.137713,12.253,33.375,2.287,4.786
20050423,020447,730920,33.877428,-120.137778,12.250,33.375,2.293,4.792
20050423,020517,730950,33.877390,-120.137827,12.219,33.399,2.287,4.756
20050423,020547,730980,33.877346,-120.137888,12.204,33.413,2.246,4.626
20050423,020618,731011,33.877326,-120.137918,12.170,33.440,2.280,4.709
20050423,020647,731040,33.877285,-120.137937,12.145,33.452,2.266,4.652
20050423,020717,731070,33.877208,-120.137953,12.133,33.458,2.293,4.631
20050423,020747,731100,33.877138,-120.137945,12.138,33.440,2.280,4.348
20050423,020817,731130,33.877066,-120.137943,12.139,33.430,2.287,4.327
20050423,020847,731160,33.876991,-120.137937,12.151,33.413,2.300,4.361
20050423,020917,731190,33.876933,-120.137933,12.176,33.384,2.307,4.381
20050423,020948,731221,33.876883,-120.137938,12.218,33.354,2.266,4.484
20050423,021017,731250,33.876845,-120.137947,12.227,33.349,2.273,4.480
20050423,021047,731280,33.876808,-120.137930,12.258,33.335,2.341,4.752
20050423,021117,731310,33.876736,-120.137903,12.275,33.336,2.205,4.308
20050423,021147,731340,33.876650,-120.137842,12.287,33.341,2.375,4.790
20050423,021217,731370,33.876578,-120.137782,12.277,33.363,2.368,4.690
20050423,021247,731400,33.876510,-120.137722,12.264,33.392,2.382,4.656
20050423,021317,731430,33.876446,-120.137678,12.217,33.445,2.382,4.773
20050423,021347,731460,33.876403,-120.137642,12.213,33.455,2.362,4.726
20050423,021417,731490,33.876361,-120.137593,12.201,33.470,2.334,4.632
20050423,021447,731520,33.876291,-120.137520,12.201,33.470,2.327,4.600
20050423,021518,731551,33.876221,-120.137430,12.196,33.473,2.355,4.667
20050423,021547,731580,33.876153,-120.137348,12.184,33.478,2.375,4.712
20050423,021617,731610,33.876101,-120.137277,12.191,33.472,2.320,4.545
20050423,021647,731640,33.876066,-120.137215,12.195,33.465,2.334,4.567
20050423,021717,731670,33.876056,-120.137158,12.187,33.470,2.355,4.492
20050423,021747,731700,33.876026,-120.137117,12.178,33.477,2.368,4.488
20050423,021818,731731,33.876026,-120.137063,12.181,33.474,2.273,4.342
20050423,021847,731760,33.876021,-120.137025,12.180,33.473,2.192,4.130
20050423,021917,731790,33.876023,-120.136985,12.210,33.447,2.198,4.139
20050423,021947,731820,33.876016,-120.136945,12.229,33.427,2.253,4.275
20050423,022018,731851,33.876015,-120.136890,12.267,33.396,2.110,3.811
20050423,022047,731880,33.876006,-120.136838,12.279,33.389,2.164,3.929
20050423,022117,731910,33.876006,-120.136793,12.295,33.383,2.063,3.744
20050423,022147,731940,33.875988,-120.136748,12.321,33.371,2.056,3.719
20050423,022217,731970,33.875970,-120.136710,12.359,33.351,2.049,3.686
20050423,022247,732000,33.875938,-120.136663,12.384,33.342,2.015,3.587
20050423,022317,732030,33.875876,-120.136603,12.399,33.346,2.036,3.640
20050423,022347,732060,33.875790,-120.136517,12.412,33.352,2.022,3.584
20050423,022417,732090,33.875730,-120.136430,12.409,33.374,2.009,3.548
20050423,022447,732120,33.875675,-120.136355,12.399,33.401,2.056,3.664
20050423,022517,732150,33.875630,-120.136297,12.389,33.426,2.042,3.625
20050423,022548,732181,33.875595,-120.136247,12.366,33.457,2.056,3.651
20050423,022617,732210,33.875541,-120.136202,12.361,33.470,2.015,3.542
20050423,022647,732240,33.875461,-120.136123,12.353,33.478,2.002,3.503
20050423,022717,732270,33.875353,-120.136023,12.361,33.471,2.002,3.498
20050423,022747,732300,33.875248,-120.135878,12.387,33.447,1.995,3.476
20050423,022817,732330,33.875135,-120.135730,12.415,33.421,2.022,3.536
20050423,022847,732360,33.875058,-120.135602,12.425,33.414,1.982,3.425
20050423,022917,732390,33.875018,-120.135505,12.435,33.410,2.029,3.544
20050423,022947,732420,33.875001,-120.135472,12.422,33.428,2.131,3.792
20050423,023017,732450,33.875006,-120.135487,12.400,33.456,2.287,4.189
20050423,023047,732480,33.875013,-120.135460,12.339,33.515,2.225,4.024
20050423,023117,732510,33.875013,-120.135380,12.267,33.580,2.212,3.982
20050423,023147,732540,33.875016,-120.135278,12.232,33.604,2.171,3.876
20050423,023217,732570,33.875033,-120.135200,12.258,33.568,1.982,3.404
20050423,023247,732600,33.875058,-120.135140,12.290,33.525,1.975,3.386
20050423,023317,732630,33.875080,-120.135103,12.345,33.464,1.860,3.114
20050423,023348,732661,33.875110,-120.135090,12.382,33.421,1.955,3.336
20050423,023417,732690,33.875138,-120.135097,12.404,33.397,2.015,3.481
20050423,023447,732720,33.875161,-120.135112,12.417,33.392,1.982,3.398
20050423,023517,732750,33.875223,-120.135112,12.421,33.400,1.948,3.316
20050423,023547,732780,33.875326,-120.135125,12.425,33.410,1.948,3.315
20050423,023617,732810,33.875451,-120.135167,12.434,33.413,1.948,3.313
20050423,023647,732840,33.875603,-120.135222,12.432,33.423,2.015,3.475
20050423,023717,732870,33.875783,-120.135242,12.412,33.448,1.982,3.392
20050423,023748,732901,33.875930,-120.135240,12.409,33.458,1.921,3.245
20050423,023818,732931,33.876093,-120.135185,12.417,33.456,1.901,3.196
20050423,023848,732961,33.876305,-120.135102,12.417,33.459,1.968,3.355
20050423,023918,732991,33.876541,-120.135007,12.396,33.478,1.941,3.289
20050423,023948,733021,33.876743,-120.134955,12.389,33.487,1.948,3.304
20050423,024018,733051,33.876903,-120.134932,12.380,33.493,2.029,3.499
20050423,024048,733081,33.877080,-120.134928,12.358,33.511,1.941,3.287
20050423,024118,733111,33.877285,-120.134928,12.350,33.514,2.036,3.513
20050423,024148,733141,33.877473,-120.134890,12.321,33.535,2.015,3.463
20050423,024218,733171,33.877648,-120.134818,12.304,33.544,1.995,3.413
20050423,024248,733201,33.877773,-120.134755,12.276,33.561,2.063,3.576
20050423,024318,733231,33.877865,-120.134705,12.253,33.570,2.090,3.642
20050423,024348,733261,33.877941,-120.134682,12.245,33.564,2.029,3.493
20050423,024418,733291,33.878020,-120.134663,12.238,33.557,1.995,3.410
20050423,024448,733321,33.878143,-120.134642,12.236,33.547,2.002,3.426
20050423,024518,733351,33.878276,-120.134645,12.221,33.549,2.015,3.458
20050423,024548,733381,33.878410,-120.134672,12.190,33.564,2.042,3.523